This is the latest recevied weather packets stored in our database for station/object K4ZZR. If no packets are shown the sender has not sent any weather packets the latest 10 day(s).
| Time | Temp. | Humidity | Pressure | Rain* | Wind** | Luminosity | Snow |
|---|---|---|---|---|---|---|---|
| 1777989529 | 25° C | 81% | 1015.6 hPa | 0 mm | - | 517 W/m² | - |
| 1777989225 | 25° C | 81% | 1015.5 hPa | 0 mm | - | 209 W/m² | - |
| 1777988922 | 25° C | 82% | 1015.5 hPa | 0 mm | - | 299 W/m² | - |
| 1777988619 | 25° C | 81% | 1015.6 hPa | 0 mm | - | 178 W/m² | - |
| 1777988315 | 25° C | 79% | 1015.4 hPa | 0 mm | - | 220 W/m² | - |
| 1777988012 | 25.56° C | 80% | 1015.2 hPa | 0 mm | - | 426 W/m² | - |
| 1777987707 | 25° C | 81% | 1015.3 hPa | 0 mm | - | 441 W/m² | - |
| 1777987405 | 25.56° C | 81% | 1015.3 hPa | 0 mm | - | 509 W/m² | - |
| 1777987102 | 25° C | 82% | 1015.4 hPa | 0 mm | - | 303 W/m² | - |
| 1777986800 | 25° C | 82% | 1015.2 hPa | 0 mm | - | 419 W/m² | - |
| 1777986497 | 24.44° C | 84% | 1015.2 hPa | 0 mm | - | 134 W/m² | - |
| 1777986195 | 24.44° C | 84% | 1015.3 hPa | 0 mm | - | 137 W/m² | - |
| 1777985892 | 24.44° C | 84% | 1015.6 hPa | 0 mm | - | 115 W/m² | - |
| 1777985589 | 24.44° C | 84% | 1015.4 hPa | 0 mm | - | 153 W/m² | - |
| 1777985286 | 24.44° C | 85% | 1015.4 hPa | 0 mm | - | 116 W/m² | - |
| 1777984983 | 24.44° C | 85% | 1015.2 hPa | 0 mm | - | 117 W/m² | - |
| 1777984678 | 24.44° C | 84% | 1015.2 hPa | 0 mm | - | 122 W/m² | - |
| 1777984375 | 24.44° C | 84% | 1015.2 hPa | 0 mm | - | 151 W/m² | - |
| 1777984071 | 25° C | 82% | 1015.3 hPa | 0 mm | - | 245 W/m² | - |
| 1777983769 | 24.44° C | 84% | 1015.2 hPa | 0 mm | - | 125 W/m² | - |
| 1777983465 | 24.44° C | 84% | 1015.3 hPa | 0 mm | - | 95 W/m² | - |
| 1777983162 | 24.44° C | 83% | 1015.1 hPa | 0 mm | - | 91 W/m² | - |
| 1777982858 | 24.44° C | 83% | 1015 hPa | 0 mm | - | 157 W/m² | - |
| 1777982555 | 25° C | 83% | 1014.9 hPa | 0 mm | - | 164 W/m² | - |
| 1777982253 | 24.44° C | 84% | 1014.7 hPa | 0 mm | - | 145 W/m² | - |
* Rain latest hour (hover to see other rain measurements)
** Current wind speed in m/s (hover to see current wind gust speed)